Wetbulb
63.92 64.11 63.98 63.85 63.75 62.87 62.86 62.43 62.51 61.81 61.59 61.55 61.41 61.09 60.97 60.90 60.75 60.71 60.81 59.72 59.86 58.96
63.26 63.34 63.38 63.54 63.90 63.47 63.21 62.49 62.42 62.04 61.36 61.61 61.43 61.04 60.76 60.66 60.09 59.72 59.19 58.81 58.48 57.70
62.08 62.65 63.06 63.26 62.84 62.65 62.88 62.46 61.18 61.33 61.19 61.14 61.07 60.84 60.45 59.89 58.73 57.54 57.36 57.00 56.35 56.62
61.41 61.61 62.10 62.30 62.40 62.30 62.23 61.83 61.04 60.56 60.47 60.43 60.31 60.30 59.09 57.67 57.29 56.30 56.46 56.36 55.52 55.01
60.63 60.89 60.75 60.93 61.44 61.71 61.06 61.53 60.31 60.09 59.57 59.51 59.26 59.27 58.20 57.03 56.34 56.07 55.31 55.19 53.71 53.43
59.58 59.62 59.69 60.19 60.58 60.54 59.99 59.88 59.30 58.97 58.30 57.92 58.02 57.56 57.32 57.40 56.75 54.68 54.57 52.32 50.09 49.51
57.32 57.90 58.75 59.08 58.84 58.61 58.39 58.11 57.67 56.85 56.46 56.71 56.51 56.72 55.43 53.47 50.91 48.74 47.60 46.49 46.40 46.19
53.95 54.82 54.83 54.45 53.91 52.65 53.02 53.02 52.70 50.96 49.64 48.68 48.26 46.65 47.61 46.96 46.06 45.03 43.72 42.65 42.59 41.94
47.86 44.90 45.86 44.72 43.27 43.12 42.45 44.26 43.16 42.07 42.51 42.52 41.98 41.40 41.65 43.54 43.68 43.02 42.87 41.92 40.44 39.48
41.41 42.00 43.58 42.82 43.04 42.85 42.90 42.38 41.67 41.64 41.10 39.28 39.45 40.27 40.62 39.35 43.16 42.61 42.12 41.01 39.53 37.66
41.40 39.63 39.04 39.86 40.80 40.49 40.95 41.33 39.89 39.16 38.51 37.39 37.78 39.12 38.80 37.56 40.69 40.12 39.50 38.91 38.63 38.30
40.80 38.46 38.02 37.41 38.55 38.24 37.35 36.54 36.66 36.29 36.07 36.56 37.04 38.34 37.90 37.07 36.35 35.48 35.58 36.14 37.37 37.46
39.43 37.39 37.08 37.72 36.76 36.32 37.10 34.76 34.66 34.24 35.09 33.96 35.85 37.69 37.21 36.66 36.57 34.05 34.28 34.46 34.28 33.30
37.48 36.36 37.56 36.34 35.36 35.01 34.67 33.82 32.88 32.11 32.20 33.13 34.56 36.63 36.28 36.01 36.07 34.99 34.86 34.22 33.30 33.93
MSLP
1012.39 1012.74 1013.06 1013.54 1014.00 1014.45 1014.60 1014.91 1015.45 1015.81 1016.06 1016.34 1016.70 1017.02 1017.39 1017.78 1017.96 1018.27 1018.45 1018.65 1018.80 1018.87
1011.73 1011.97 1012.15 1012.63 1013.11 1013.47 1013.80 1014.04 1014.51 1014.94 1015.29 1015.54 1015.83 1016.21 1016.66 1016.93 1017.23 1017.60 1017.76 1017.92 1018.10 1018.21
1010.88 1011.27 1011.61 1012.03 1012.25 1012.63 1013.01 1013.51 1014.00 1014.25 1014.54 1014.83 1015.16 1015.55 1016.01 1016.32 1016.64 1016.95 1017.11 1017.41 1017.65 1017.74
1010.12 1010.64 1010.97 1011.17 1011.46 1011.93 1012.45 1012.71 1013.08 1013.46 1013.87 1014.20 1014.51 1014.83 1015.28 1015.64 1016.01 1016.49 1016.76 1016.96 1017.04 1017.06
1009.49 1009.92 1010.37 1010.58 1010.82 1011.26 1011.60 1012.08 1012.52 1012.90 1013.26 1013.48 1013.73 1014.05 1014.47 1014.90 1015.30 1015.62 1015.89 1016.06 1016.27 1016.44
1009.05 1009.35 1009.71 1010.07 1010.46 1010.90 1011.36 1011.67 1012.12 1012.46 1012.75 1013.05 1013.41 1013.75 1014.01 1014.21 1014.49 1014.77 1015.07 1015.53 1015.98 1016.45
1008.77 1009.05 1009.45 1009.95 1010.39 1010.75 1011.08 1011.44 1011.79 1012.17 1012.48 1012.81 1013.11 1013.43 1013.69 1013.98 1014.36 1014.81 1015.21 1015.58 1016.09 1016.42
1009.10 1009.33 1009.72 1010.13 1010.51 1010.98 1011.30 1011.57 1011.82 1012.25 1012.68 1013.04 1013.34 1013.58 1013.84 1014.25 1014.67 1015.06 1015.59 1015.95 1016.32 1016.60
1009.34 1009.79 1010.22 1010.68 1011.07 1011.38 1011.74 1012.00 1012.23 1012.63 1012.97 1013.43 1013.86 1013.96 1013.91 1014.08 1014.72 1015.17 1015.53 1015.93 1016.24 1016.37
1009.60 1010.12 1010.48 1010.81 1011.12 1011.61 1012.03 1012.42 1012.70 1012.97 1013.27 1013.63 1014.00 1014.16 1014.21 1014.31 1014.60 1014.96 1015.37 1015.75 1016.06 1016.31
1009.72 1010.06 1010.44 1010.87 1011.20 1011.61 1012.06 1012.52 1013.04 1013.45 1013.80 1014.01 1014.36 1014.35 1014.44 1014.40 1014.73 1015.07 1015.42 1015.59 1015.91 1015.85
1009.30 1009.97 1010.28 1010.57 1010.97 1011.45 1011.95 1012.50 1012.97 1013.39 1013.79 1014.12 1014.54 1014.57 1014.46 1014.57 1014.76 1015.05 1015.35 1015.58 1015.88 1016.22
1008.35 1009.24 1009.87 1010.17 1010.41 1011.09 1011.56 1012.18 1012.79 1013.30 1013.60 1014.13 1014.28 1014.48 1014.61 1014.72 1015.16 1015.31 1015.68 1016.19 1016.28 1016.26
1007.77 1008.51 1009.09 1009.76 1010.23 1010.92 1011.63 1012.29 1012.85 1013.22 1013.75 1014.37 1014.12 1014.45 1014.76 1014.71 1014.93 1015.20 1015.45 1016.15 1016.23 1016.23
Wind_Speed
22 13 14 16 12 11 11 11 14 14 15 15 15 14 13 10 11 12 11 16 13 10
18 19 16 18 15 12 13 11 13 13 13 14 14 14 14 10 12 11 11 11 11 10
17 17 16 14 16 16 13 13 12 13 13 13 13 13 13 10 10 9 8 7 9 9
15 16 16 14 14 14 13 13 14 13 13 13 12 12 11 10 9 8 9 9 10 11
16 15 14 15 15 13 14 13 13 12 12 12 12 11 12 10 9 10 10 10 9 9
14 13 15 15 15 13 12 12 11 11 11 11 10 9 10 10 9 9 8 4 4 3
13 13 13 11 11 11 10 10 9 8 8 7 7 8 6 5 4 4 4 4 3 3
6 6 6 7 5 3 4 3 4 5 4 4 4 3 5 5 5 5 5 4 4 4
5 4 4 5 5 5 5 5 5 6 6 6 3 7 9 7 6 5 5 5 5 5
6 6 6 6 6 6 6 5 5 5 6 6 5 9 10 9 7 7 6 6 6 5
8 7 6 6 6 5 5 7 6 6 6 6 4 8 11 10 8 6 6 6 5 6
10 10 10 10 9 6 7 6 5 5 6 6 4 9 11 8 6 6 6 5 5 5
12 11 11 11 11 7 8 8 7 6 5 4 5 9 10 8 5 6 5 5 5 6
11 11 11 11 6 9 9 8 7 7 5 3 4 8 11 11 5 6 6 5 5 3
Wind_Direction
218 218 218 220 217 219 217 215 216 213 218 222 226 229 230 230 231 231 233 240 241 243
218 218 217 218 220 219 222 220 217 214 217 224 226 227 226 228 233 228 233 236 240 240
217 219 220 220 220 219 222 221 215 217 219 221 223 224 225 227 229 221 224 226 230 234
213 215 217 218 219 220 220 215 216 217 219 222 224 223 219 218 222 215 228 226 227 233
216 213 214 216 217 215 217 215 217 217 218 221 222 220 217 212 208 216 221 228 219 232
217 211 214 217 220 215 216 218 217 216 218 218 218 212 209 213 214 210 218 207 171 167
212 213 216 216 214 212 211 212 210 204 204 206 206 215 210 194 154 120 116 116 121 138
205 195 190 188 178 151 161 161 139 126 109 102 103 108 125 133 133 127 123 118 121 83
176 149 147 127 128 128 131 126 121 122 129 118 103 117 117 130 128 129 138 140 129 123
155 159 156 149 144 141 139 129 130 128 129 121 124 139 133 129 141 148 158 160 149 138
170 166 155 152 153 145 142 146 141 139 136 132 150 157 150 145 141 138 145 152 158 155
177 170 168 168 164 152 143 140 149 148 145 143 162 164 150 142 138 142 140 122 139 142
174 174 176 169 161 156 153 145 143 134 139 151 154 162 163 156 145 126 128 118 121 108
175 173 169 159 151 147 145 137 134 127 128 149 148 153 157 156 149 152 139 143 128 111